Regional Weather Roundup
Issued by NWS Mobile, AL

Home | Current Version | Previous Version | Text Only | Print | Product List | Glossary On
Versions: 1 2 3 4 5 6 7 8 9 10 11 12 13 14 15 16 17 18 19 20 21 22 23 24 25 26 27 28 29 30 31 32 33 34 35 36 37 38 39 40 41 42 43 44 45 46 47 48 49 50
000
ASUS44 KMOB 280016
RWRMOB
REGIONAL WEATHER ROUNDUP
NATIONAL WEATHER SERVICE MOBILE AL
700 PM CDT THU AUG 27 2015

ALZ061>064-280100-
COASTAL ALABAMA


CITY           SKY/WX    TMP DP  RH WIND       PRES   REMARKS
MOBILE REG APT FAIR      82  62  50 N6        29.95R
6HR MIN TEMP:  82; 6HR MAX TEMP:  87;

BROOKLEY FIELD FAIR      85  62  46 N8        29.95R
6HR MIN TEMP:  85; 6HR MAX TEMP:  90;

GULF SHORES    FAIR      80  68  67 S3        29.93R
6HR MIN TEMP:  80; 6HR MAX TEMP:  85;


$$

ALZ051>060-280100-
INTERIOR SOUTHWEST AND SOUTH CENTRAL ALABAMA


CITY           SKY/WX    TMP DP  RH WIND       PRES   REMARKS
ANDALUSIA/OPP  FAIR      88  62  41 CALM      29.94R
6HR MIN TEMP:  88; 6HR MAX TEMP:  95;

EVERGREEN      FAIR      83  62  49 N3        29.95R
6HR MIN TEMP:  83; 6HR MAX TEMP:  92;

FLORALA        FAIR      80  68  66 CALM      29.95S
6HR MIN TEMP:  80; 6HR MAX TEMP:  91;

GREENVILLE     FAIR      84  63  49 N3        29.96R
6HR MIN TEMP:  84; 6HR MAX TEMP:  90;


$$

FLZ001>006-280100-
WESTERN FLORIDA PANHANDLE


CITY           SKY/WX    TMP DP  RH WIND       PRES   REMARKS
CRESTVIEW      FAIR      83  66  56 S6        29.94R
6HR MIN TEMP:  83; 6HR MAX TEMP:  93;

DESTIN         FAIR      83  64  52 VRB6      29.93R
6HR MIN TEMP:  83; 6HR MAX TEMP:  86;

DUKE FIELD     PTCLDY    84  64  51 SW7       29.93R
6HR MIN TEMP:  84; 6HR MAX TEMP:  92;

MARY ESTHER    FAIR      82  62  50 SW2       29.93R
6HR MIN TEMP:  82; 6HR MAX TEMP:  85;

MILTON         NOT AVBL
PENSACOLA      FAIR      80  65  59 SW7       29.93R
6HR MIN TEMP:  80; 6HR MAX TEMP:  88;

NAS PENSACOLA  FAIR      79  66  64 SW5       29.93R
6HR MIN TEMP:  79; 6HR MAX TEMP:  84;

VALPARAISO     PTCLDY    82  64  53 SW5       29.94R
6HR MIN TEMP:  82; 6HR MAX TEMP:  87;


$$

...MARINE OBSERVATIONS...

STATION/POSITION TIME  SKY/WX   TEMP    WIND        PRES    VSBY
                                AIR SEA DIR/SP/G
                 (UTC)          (F)     (DEG/KT/KT) (MB)    (MI)
PASCAGOULA       2300            86      20/  8/ 11 1013.3F
PETIT BOIS ISL   2300            83     250/  7/  8 1014.0F
E DAUPHIN ISLAND 0000            83     230/  5/  6 1013.8R
MIDDLE BAY LIGHT 2300                   350/ 12     1012.2F
USCG MOBILE BAY  2300            86 81  350/  7/ 10 1012.4F
STATE DOCKS      2300            87 86              1013.1F
MEAHER PARK      2300            85     320/  6     1012.5R
FORT MORGAN      2300            83     240/  8/  9 1012.9F
12 S ORANGE BCH  2350            82 86  210/  2/  4 1013.3R
WVE H/P(F/S)=  0

PENSACOLA BAY    2300            85 84  210/  4/  7 1013.7R
64 S DAUPHIN ISL 2350            80 87   10/  6/  8 1014.2R
WVE H/P(F/S)=  1/ 4

115 SE PENSACOLA 2350            83 86   10/  6/  8 1013.5S
WVE H/P(F/S)=  1/ 4

MID GULF/42001   0000            83 86   20/ 10/ 12 1013.9S
EAST GULF/42003  2350            83 88  240/  2/  4 1013.3R
WVE H/P(F/S)=  2/ 5


$$

...NEARBY LOCATIONS

CITY           SKY/WX    TMP DP  RH WIND       PRES   REMARKS
GULFPORT       FAIR      84  61  45 N6        29.94R
6HR MIN TEMP:  84; 6HR MAX TEMP:  88;

BILOXI         FAIR      84  63  49 N5        29.94R
6HR MIN TEMP:  84; 6HR MAX TEMP:  87;

PASCAGOULA     FAIR      82  64  54 N3        29.94R
6HR MIN TEMP:  82; 6HR MAX TEMP:  89;

HATTIESBURG    FAIR      84  58  40 NE5       29.98R
6HR MIN TEMP:  84; 6HR MAX TEMP:  88;

LAUREL         FAIR      82 N/A N/A E7        30.00S
6HR MIN TEMP:  82; 6HR MAX TEMP:  90;

MERIDIAN       FAIR      80  59  48 N6        30.00R
6HR MIN TEMP:  80; 6HR MAX TEMP:  86;

MERIDIAN NAS   FAIR      80  59  48 N6        30.00R
6HR MIN TEMP:  80; 6HR MAX TEMP:  87;

MONTGOMERY     FAIR      87  61  41 CALM      29.96R
6HR MIN TEMP:  86; 6HR MAX TEMP:  93;

MAXWELL AFB    FAIR      85  64  48 N3        29.96R
6HR MIN TEMP:  85; 6HR MAX TEMP:  90;

TROY           FAIR      85  64  49 N3        29.96R
6HR MIN TEMP:  85; 6HR MAX TEMP:  92;

FORT RUCKER    MOCLDY    84  62  47 N6        29.93R
6HR MIN TEMP:  83; 6HR MAX TEMP:  94;

DALEVILLE      PTCLDY    86  61  42 N8        29.93R
6HR MIN TEMP:  86; 6HR MAX TEMP:  92;

DOTHAN         FAIR      86  64  47 NE3       29.97R
6HR MIN TEMP:  86; 6HR MAX TEMP:  92;


$$

...OTHER SURROUNDING LOCATIONS...

CITY           SKY/WX    TMP DP  RH WIND       PRES   REMARKS
BIRMINGHAM     FAIR      82  66  58 N6        30.02S
6HR MIN TEMP:  82; 6HR MAX TEMP:  87;

TUSCALOOSA     FAIR      83  63  50 N6        29.99S
6HR MIN TEMP:  83; 6HR MAX TEMP:  87;

COLUMBUS GA    FAIR      84  63  49 E9        29.96S
6HR MIN TEMP:  84; 6HR MAX TEMP:  89;

PANAMA CITY    NOT AVBL
TALLAHASSEE    MOCLDY    88  69  53 S7        29.92R
6HR MIN TEMP:  88; 6HR MAX TEMP:  95;

BATON ROUGE    FAIR      84  61  45 CALM      29.97R
6HR MIN TEMP:  84; 6HR MAX TEMP:  88;

NEW ORLEANS    FAIR      84  57  39 NE6       29.96R
6HR MIN TEMP:  83; 6HR MAX TEMP:  87;

SLIDELL        FAIR      84  64  50 CALM      29.95S
6HR MIN TEMP:  83; 6HR MAX TEMP:  88;

JACKSON        FAIR      84  54  35 NE9       30.00R
6HR MIN TEMP:  84; 6HR MAX TEMP:  89;

MCCOMB         FAIR      85  57  38 NE5       29.98S
6HR MIN TEMP:  83; 6HR MAX TEMP:  89;


$$

...SURROUNDING MARINE OBSERVATIONS...

STATION/POSITION TIME  SKY/WX   TEMP    WIND        PRES    VSBY
                                AIR SEA DIR/SP/G
                 (UTC)          (F)     (DEG/KT/KT) (MB)    (MI)
WAVELAND         2300            84 84   80/  2/  6 1014.4F
PASCAGOULA RGN A 2300            87      40/  8/ 11 1013.0F
PASCAGOULA PORT  2300               86                N/A
GRAND ISLE       2300            83 85   60/  5/  7 1014.6F
SOUTHWEST PASS   0000                                 N/A
PILOT STATION E  2300            87 86   30/ 10/ 12 1014.8F
SHELL BEACH      2300            86 84   CALM  /  2 1013.8F
PANAMA CITY      2300            83 87  270/  8/  9 1013.0R
APALACHICOLA     2300            87 87  220/  4/  5 1012.8R
TYNDALL TOWER C  0000            84     130/  4/  5 1013.1R
S APLCHCLA/42036 2350            86 88  170/  4/  4 1012.9R
WVE H/P(F/S)=  2/ 5


$$



USA.gov is the U.S. government's official web portal to all federal, state and local government web resources and services.